SL-3 R/B, 12457

Orbit data source: Space-Track

SL-3 R/B, 12457 is space debris in LEO originally from a launch on Thu, 14 May 1981 UTC launched from the Plesetsk Missile And Space Complex (PKMTR). Debris objects in space refer to the collection of defunct objects orbiting the Earth. Examples of debris include non-operational satellites, rocket bodies, and fragments generated from explosions, collisions, or faulty payload assembly.

Loading next visibility...
Identifier
12457, 1981-043B
Orbit
LEO
Country
Flag of CISCIS
Related business
Manufacturer
Progress
Mission
Spacecraft
Bus & Motor
BLOK-E, Unknown motor
Mass
1,440 kg wet, 1,440 kg dry
Launch date (UTC)
1981-05-14 (44 years ago)
Launch vehicle
Unknown
Launch site
Plesetsk Missile And Space Complex (PKMTR)
Object type
Payload
Rocket body
Debris
Shape & HBR
Unknown
Radar Cross Section
Large (>1 m²)

Expand to show TLE details & history
Last TLE update: 17 hours ago

TLE from 17 hours ago
0 SL-3 R/B
1 12457U 81043B   25310.65958970  .00000149  00000-0  79382-4 0  9992
2 12457  81.2788  39.0110 0062261 164.2987 196.0133 14.07649040283509
Epoch: 2025-11-06T15:49Z
TLE epoch observation values (Epoch: 2025-11-06T15:49:48.550Z)
Latitude
-0.00001°
Longitude
115.44398°
Altitude
913.716 km
Speed
7.373 km/s
True Right ascension
02h 36m 02s
True Declination
0° 00' 00"
Sunlit
Object was in full shadow at epoch
Visualization orbit readout
Latitude
Unknown
Longitude
Unknown
Altitude
Unknown
Speed
Unknown
Apparent Right ascension
Unknown
Apparent Declination
Unknown
Sunlit
N/A
Visualization observer readout
Local Sidereal Time
04:58:49
Azimuth
Unknown
Elevation
Unknown
Doppler factor
Unknown
Orbital elements
Apogee altitude
909.697 km
Perigee altitude
819.509 km
Semi-major axis
7,242.74 km
Eccentricity
0.00623
Inclination
81.2788°
RAAN
39.011°
Arg. of periapsis
164.2987°
True anomaly
195.81795°
Mean anomaly
196.0133°
Eccentric anomaly
195.91548°
Mean motion
3.52118 °/min
Orbital period
102.24 mins
BSTAR
0.000079382
Loading maneuver chart data...
Computing Atmospheric mass density...
Loading historical data...
Loading historical data...
Loading historical data...
Loading historical data...
Loading historical data...
Loading historical data...
Loading historical data...

Documentation

Showing up to 5 results
|